DW8219 Weather Reports


Display with metric or nautical units.
time (UTC)temp
F
wind
direction
speed
MPH
gust
MPH
rain 1hr
in
rain 24hr
in
rain mn
in
humidity
%
barometer
mb
20260906202904 74 35 1.0 6.0 0.00 0.00 0.00 54 1013.2
20260906202404 75 79 1.0 3.0 0.00 0.00 0.00 52 1013.2
20260906201904 77 59 1.0 3.0 0.00 0.00 0.00 53 1013.2
20260906201404 76 25 2.0 5.0 0.00 0.00 0.00 55 1013.2
20260906200904 76 86 0.0 5.0 0.00 0.00 0.00 55 1013.3
20260906200405 74 15 1.0 6.0 0.00 0.00 0.00 59 1013.2
20260906195904 73 348 0.0 2.0 0.00 0.00 0.00 59 1013.1
20260906195404 74 337 0.0 3.0 0.00 0.00 0.00 56 1013.1
20260906194904 74 332 0.0 3.0 0.00 0.00 0.00 59 1013.1
20260906194404 74 344 0.0 2.0 0.00 0.00 0.00 57 1013.1
20260906193905 74 325 0.0 3.0 0.00 0.00 0.00 58 1013.0
20260906193404 75 338 0.0 3.0 0.00 0.00 0.00 55 1013.1
20260906192904 75 324 0.0 0.0 0.00 0.00 0.00 61 1013.2
20260906192404 74 309 1.0 3.0 0.00 0.00 0.00 57 1013.2
20260906191905 74 297 0.0 7.0 0.00 0.00 0.00 63 1013.3
20260906191404 73 329 0.0 5.0 0.00 0.00 0.00 59 1013.3
20260906190904 73 350 1.0 7.0 0.00 0.00 0.00 58 1013.3
20260906190405 73 41 1.0 3.0 0.00 0.00 0.00 59 1013.2
20260906185905 74 34 2.0 5.0 0.00 0.00 0.00 57 1013.2
20260906185404 74 57 1.0 3.0 0.00 0.00 0.00 56 1013.1
20260906184904 75 66 3.0 6.0 0.00 0.00 0.00 56 1013.1
20260906184404 73 306 0.0 2.0 0.00 0.00 0.00 63 1013.2
20260906183904 72 355 0.0 3.0 0.00 0.00 0.00 62 1013.3
20260906183404 73 19 1.0 3.0 0.00 0.00 0.00 60 1013.3
20260906182904 73 44 1.0 3.0 0.00 0.00 0.00 61 1013.2
20260906181905 73 0 0.0 2.0 0.00 0.00 0.00 63 1013.3
20260906181404 72 63 1.0 8.0 0.00 0.00 0.00 66 1013.3
20260906180904 72 28 0.0 3.0 0.00 0.00 0.00 66 1013.3
20260906180404 72 42 2.0 5.0 0.00 0.00 0.00 65 1013.3
20260906175404 73 101 0.0 3.0 0.00 0.00 0.00 65 1013.5
20260906174905 72 87 0.0 2.0 0.00 0.00 0.00 66 1013.5
20260906173905 75 85 1.0 3.0 0.00 0.00 0.00 60 1013.4
20260906173405 75 114 0.0 3.0 0.00 0.00 0.00 63 1013.5
20260906172905 76 324 1.0 3.0 0.00 0.00 0.00 63 1013.6
20260906172405 74 25 0.0 5.0 0.00 0.00 0.00 62 1013.6
20260906171905 73 26 3.0 9.0 0.00 0.00 0.00 63 1013.6
20260906171405 73 50 2.0 13.0 0.00 0.00 0.00 62 1013.6
20260906170905 74 48 2.0 5.0 0.00 0.00 0.00 64 1013.7
20260906170404 74 314 1.0 9.0 0.00 0.00 0.00 63 1013.7
20260906165905 73 346 1.0 3.0 0.00 0.00 0.00 66 1013.7
20260906165406 73 325 1.0 6.0 0.00 0.00 0.00 64 1013.7
20260906164905 74 45 2.0 8.0 0.00 0.00 0.00 60 1013.7
20260906164405 76 0 1.0 5.0 0.00 0.00 0.00 61 1013.8
20260906163905 75 19 2.0 7.0 0.00 0.00 0.00 62 1013.8
20260906162904 71 42 1.0 3.0 0.00 0.00 0.00 66 1013.8
20260906162405 71 353 1.0 6.0 0.00 0.00 0.00 67 1013.8
20260906161905 72 21 1.0 8.0 0.00 0.00 0.00 67 1013.8
20260906161405 73 318 1.0 5.0 0.00 0.00 0.00 66 1013.8
20260906160905 72 317 0.0 0.0 0.00 0.00 0.00 68 1013.9
20260906160406 71 315 0.0 3.0 0.00 0.00 0.00 69 1013.9
20260906155905 72 322 1.0 3.0 0.00 0.00 0.00 67 1013.8
20260906155406 73 315 1.0 6.0 0.00 0.00 0.00 66 1013.9
20260906154905 73 36 2.0 5.0 0.00 0.00 0.00 65 1013.9
20260906153904 72 0 1.0 5.0 0.00 0.00 0.00 67 1013.9
20260906153404 73 65 2.0 7.0 0.00 0.00 0.00 67 1013.9
20260906152405 71 103 1.0 9.0 0.00 0.00 0.00 68 1014.0
20260906151904 71 59 1.0 6.0 0.00 0.00 0.00 67 1014.0
20260906151403 72 11 3.0 9.0 0.00 0.00 0.00 67 1013.9
20260906150903 72 22 2.0 9.0 0.00 0.00 0.00 69 1013.9
20260906150403 72 48 3.0 9.0 0.00 0.00 0.00 71 1013.9
20260906145904 71 55 1.0 7.0 0.00 0.00 0.00 72 1013.9
20260906144404 70 94 1.0 7.0 0.00 0.00 0.00 74 1013.9
20260906143903 70 45 2.0 3.0 0.00 0.00 0.00 74 1013.9
20260906143404 70 318 0.0 3.0 0.00 0.00 0.00 74 1014.0
20260906142904 70 337 2.0 7.0 0.00 0.00 0.00 76 1013.9
20260906142403 69 355 0.0 1.0 0.00 0.00 0.00 76 1013.7
20260906141404 69 286 0.0 3.0 0.00 0.00 0.00 77 1013.7
20260906140904 69 0 0.0 0.0 0.00 0.00 0.00 78 1013.8
20260906140404 68 0 0.0 0.0 0.00 0.00 0.00 79 1013.8
20260906135404 68 316 0.0 3.0 0.00 0.00 0.00 80 1013.8
20260906134904 68 350 0.0 0.0 0.00 0.00 0.00 80 1013.8
20260906133903 67 339 0.0 0.0 0.00 0.00 0.00 82 1013.7
20260906133405 67 339 0.0 0.0 0.00 0.00 0.00 81 1013.8
20260906132404 67 323 0.0 2.0 0.00 0.00 0.00 82 1013.7
20260906131903 67 315 0.0 2.0 0.00 0.00 0.00 82 1013.6
20260906131404 67 326 0.0 2.0 0.00 0.00 0.00 82 1013.7
20260906130904 67 19 1.0 3.0 0.00 0.00 0.00 82 1013.7
20260906130404 67 311 0.0 3.0 0.00 0.00 0.00 82 1013.8
20260906125904 67 65 0.0 3.0 0.00 0.00 0.00 81 1013.6
20260906125404 67 50 1.0 5.0 0.00 0.00 0.00 82 1013.5
20260906124904 67 10 0.0 1.0 0.00 0.00 0.00 83 1013.5
20260906124404 66 6 1.0 3.0 0.00 0.00 0.00 83 1013.5
20260906123904 66 311 0.0 3.0 0.00 0.00 0.00 84 1013.5
20260906123404 66 302 0.0 3.0 0.00 0.00 0.00 83 1013.5
20260906122904 66 346 0.0 0.0 0.00 0.00 0.00 84 1013.3
20260906122404 66 346 0.0 1.0 0.00 0.00 0.00 84 1013.3
20260906121904 66 350 0.0 0.0 0.00 0.00 0.00 83 1013.2
20260906121404 66 350 0.0 0.0 0.00 0.00 0.00 83 1013.2
20260906120904 66 355 0.0 0.0 0.00 0.00 0.00 84 1013.2
20260906120404 66 355 0.0 0.0 0.00 0.00 0.00 85 1013.2
20260906115405 65 355 0.0 0.0 0.00 0.00 0.00 85 1013.2
20260906114904 65 355 0.0 0.0 0.00 0.00 0.00 85 1013.2
20260906114405 65 355 1.0 3.0 0.00 0.00 0.00 86 1013.2
20260906113404 64 311 0.0 3.0 0.00 0.00 0.00 87 1012.9
20260906112904 63 326 0.0 3.0 0.00 0.00 0.00 88 1012.9
20260906112405 63 329 0.0 0.0 0.00 0.00 0.00 89 1012.7
20260906111904 63 329 0.0 0.0 0.00 0.00 0.00 89 1012.7
20260906111405 62 329 0.0 0.0 0.00 0.00 0.00 89 1012.7
20260906110905 62 329 0.0 1.0 0.00 0.00 0.00 89 1012.7
20260906110405 62 330 0.0 3.0 0.00 0.00 0.00 90 1012.7
20260906105905 62 332 1.0 3.0 0.00 0.00 0.00 90 1012.6
20260906105404 62 6 0.0 0.0 0.00 0.00 0.00 89 1012.5
20260906104904 62 6 0.0 0.0 0.00 0.00 0.00 89 1012.3
20260906104404 62 13 0.0 0.0 0.00 0.00 0.00 88 1012.2
20260906103904 62 13 0.0 0.0 0.00 0.00 0.00 88 1012.2
20260906103405 63 13 0.0 0.0 0.00 0.00 0.00 88 1012.2
20260906102905 63 13 0.0 0.0 0.00 0.00 0.00 87 1012.1
20260906102404 63 13 0.0 0.0 0.00 0.00 0.00 87 1012.0
20260906100905 63 13 0.0 0.0 0.00 0.00 0.00 87 1012.1
20260906100405 63 19 0.0 0.0 0.00 0.00 0.00 87 1012.0
20260906095405 63 17 0.0 0.0 0.00 0.00 0.00 87 1012.0
20260906094905 63 17 0.0 0.0 0.00 0.00 0.00 87 1011.9
20260906094406 64 17 0.0 3.0 0.00 0.00 0.00 87 1011.9
20260906093905 64 13 0.0 2.0 0.00 0.00 0.00 87 1011.8
20260906092905 64 5 0.0 0.0 0.00 0.00 0.00 87 1011.6
20260906092404 64 5 0.0 1.0 0.00 0.00 0.00 87 1011.6
20260906091904 64 5 0.0 0.0 0.00 0.00 0.00 87 1011.5
20260906091404 64 5 0.0 1.0 0.00 0.00 0.00 87 1011.4
20260906085904 64 0 0.0 0.0 0.00 0.00 0.00 88 1011.2
20260906085404 64 2 0.0 0.0 0.00 0.00 0.00 88 1011.2
20260906084904 64 7 0.0 0.0 0.00 0.00 0.00 88 1011.3
20260906084403 64 8 0.0 0.0 0.00 0.00 0.00 88 1011.2
20260906083903 64 7 0.0 0.0 0.00 0.00 0.00 88 1011.2
20260906083404 63 5 0.0 0.0 0.00 0.00 0.00 88 1011.1
20260906082905 63 6 0.0 0.0 0.00 0.00 0.00 88 1011.0
20260906082404 63 6 0.0 0.0 0.00 0.00 0.00 88 1011.1
20260906081904 63 7 0.0 0.0 0.00 0.00 0.00 88 1011.0
20260906081404 63 6 0.0 0.0 0.00 0.00 0.00 88 1010.9
20260906080904 63 6 0.0 0.0 0.00 0.00 0.00 88 1010.9
20260906080404 63 6 0.0 0.0 0.00 0.00 0.00 88 1010.9
20260906075905 63 6 0.0 0.0 0.00 0.00 0.00 88 1011.0
20260906075405 63 6 0.0 0.0 0.00 0.00 0.00 87 1011.0
20260906074904 63 6 0.0 0.0 0.00 0.00 0.00 88 1011.1
20260906074404 63 6 0.0 0.0 0.00 0.00 0.00 87 1011.0
20260906073904 63 6 0.0 0.0 0.00 0.00 0.00 87 1011.0
20260906073405 63 6 0.0 0.0 0.00 0.00 0.00 87 1011.1
20260906072904 63 6 0.0 0.0 0.00 0.00 0.00 87 1011.0
20260906072405 64 7 0.0 0.0 0.00 0.00 0.00 86 1011.0
20260906071904 64 7 0.0 0.0 0.00 0.00 0.00 86 1010.9
20260906070904 64 8 0.0 0.0 0.00 0.00 0.00 85 1010.8
20260906070404 64 336 0.0 0.0 0.00 0.00 0.00 85 1010.8
20260906065404 64 337 0.0 0.0 0.00 0.00 0.00 85 1011.0
20260906064904 64 355 0.0 0.0 0.00 0.00 0.00 85 1010.8
20260906064404 64 355 0.0 0.0 0.00 0.00 0.00 84 1010.8
20260906063904 64 355 0.0 0.0 0.00 0.00 0.00 84 1010.8
20260906063404 64 355 0.0 0.0 0.00 0.00 0.00 83 1010.9
20260906062905 65 355 0.0 0.0 0.00 0.00 0.00 83 1010.8
20260906062404 65 355 0.0 0.0 0.00 0.00 0.00 83 1011.0
20260906061404 65 355 0.0 1.0 0.00 0.00 0.00 82 1011.2
20260906060904 65 345 0.0 0.0 0.00 0.00 0.00 82 1011.3
20260906060404 65 344 0.0 0.0 0.00 0.00 0.00 81 1011.2
20260906055905 65 344 0.0 0.0 0.00 0.00 0.00 82 1011.1
20260906055405 65 346 0.0 0.0 0.00 0.00 0.00 82 1011.1
20260906054404 65 13 0.0 0.0 0.00 0.00 0.00 81 1011.2
20260906053904 66 13 0.0 0.0 0.00 0.00 0.00 81 1011.2
20260906053405 66 20 0.0 0.0 0.00 0.00 0.00 81 1011.1
20260906052905 66 20 0.0 0.0 0.00 0.00 0.00 80 1011.2
20260906052404 66 23 0.0 0.0 0.00 0.00 0.00 80 1011.1
20260906051405 66 30 0.0 0.0 0.00 0.00 0.00 80 1011.1
20260906045904 66 30 0.0 0.0 0.00 0.00 0.00 80 1011.3
20260906045405 66 30 0.0 0.0 0.00 0.00 0.00 79 1011.4
20260906044906 66 30 0.0 1.0 0.00 0.00 0.00 78 1011.2
20260906044404 67 30 0.0 0.0 0.00 0.00 0.00 78 1011.1
20260906043404 67 32 0.0 0.0 0.00 0.00 0.00 77 1011.2
20260906042905 67 24 0.0 2.0 0.00 0.00 0.00 78 1011.1
20260906042404 67 18 0.0 2.0 0.00 0.00 0.00 78 1011.0
20260906041405 67 0 0.0 0.0 0.00 0.00 0.00 78 1011.1
20260906040905 67 0 0.0 3.0 0.00 0.00 0.00 78 1011.1
20260906035905 66 347 0.0 0.0 0.00 0.00 0.00 78 1011.2
20260906035405 66 347 0.0 0.0 0.00 0.00 0.00 78 1011.1
20260906034905 66 347 0.0 0.0 0.00 0.00 0.00 78 1011.1
20260906034404 67 347 0.0 0.0 0.00 0.00 0.00 78 1011.1
20260906033405 67 347 0.0 0.0 0.00 0.00 0.00 77 1011.1
20260906032905 67 347 0.0 0.0 0.00 0.00 0.00 77 1011.0
20260906032403 67 347 0.0 0.0 0.00 0.00 0.00 77 1011.0
20260906031903 67 347 0.0 0.0 0.00 0.00 0.00 77 1010.9
20260906031404 67 347 0.0 0.0 0.00 0.00 0.00 76 1010.8
20260906030904 67 347 0.0 0.0 0.00 0.00 0.00 76 1010.8
20260906030404 68 347 0.0 0.0 0.00 0.00 0.00 76 1010.8
20260906025903 68 347 0.0 0.0 0.00 0.00 0.00 76 1010.8
20260906025404 68 347 0.0 0.0 0.00 0.00 0.00 76 1010.8
20260906024904 68 347 0.0 0.0 0.00 0.00 0.00 75 1010.8
20260906023903 68 347 0.0 0.0 0.00 0.00 0.00 75 1010.8
20260906022904 68 347 0.0 0.0 0.00 0.00 0.00 75 1010.7
20260906022403 68 347 0.0 0.0 0.00 0.00 0.00 75 1010.7
20260906021904 68 348 0.0 0.0 0.00 0.00 0.00 75 1010.8
20260906021404 68 349 0.0 0.0 0.00 0.00 0.00 75 1010.8
20260906020404 68 354 0.0 0.0 0.00 0.00 0.00 74 1010.7
20260906015404 68 338 0.0 0.0 0.00 0.00 0.00 74 1010.6
20260906014905 69 338 0.0 0.0 0.00 0.00 0.00 73 1010.6
20260906014404 69 338 0.0 0.0 0.00 0.00 0.00 73 1010.6
20260906013404 69 340 0.0 0.0 0.00 0.00 0.00 72 1010.5
20260906012904 69 340 0.0 0.0 0.00 0.00 0.00 72 1010.4
20260906012405 69 340 0.0 0.0 0.00 0.00 0.00 72 1010.3
20260906011904 69 340 0.0 0.0 0.00 0.00 0.00 71 1010.3
20260906011404 69 345 0.0 0.0 0.00 0.00 0.00 71 1010.3
20260906010404 70 5 0.0 0.0 0.00 0.00 0.00 70 1010.2
20260906005905 70 29 0.0 0.0 0.00 0.00 0.00 70 1010.2
20260906005405 70 42 0.0 0.0 0.00 0.00 0.00 69 1010.2
20260906004904 70 45 0.0 1.0 0.00 0.00 0.00 70 1010.1
20260906004404 71 355 0.0 0.0 0.00 0.00 0.00 69 1010.1
20260906003904 71 355 0.0 0.0 0.00 0.00 0.00 69 1010.0
20260906003404 71 299 0.0 5.0 0.00 0.00 0.00 68 1009.9
20260906002904 71 352 0.0 0.0 0.00 0.00 0.00 68 1009.9
20260906002405 71 342 0.0 0.0 0.00 0.00 0.00 68 1009.9
20260906001905 72 0 0.0 0.0 0.00 0.00 0.00 67 1009.8
20260906001405 72 44 0.0 1.0 0.00 0.00 0.00 67 1009.8
20260906000405 72 1 0.0 1.0 0.00 0.00 0.00 67 1009.6
20260905235906 71 355 0.0 0.0 0.00 0.00 0.00 67 1009.5
20260905234905 72 0 0.0 0.0 0.00 0.00 0.00 66 1009.4
20260905234405 72 0 0.0 0.0 0.00 0.00 0.00 66 1009.2
20260905233905 72 0 0.0 1.0 0.00 0.00 0.00 66 1009.2
20260905233406 72 12 0.0 1.0 0.00 0.00 0.00 66 1009.4
20260905232905 72 22 0.0 0.0 0.00 0.00 0.00 67 1009.4
20260905231905 72 315 0.0 0.0 0.00 0.00 0.00 65 1009.4
20260905230405 73 322 0.0 1.0 0.00 0.00 0.00 64 1009.4
20260905225905 73 313 0.0 1.0 0.00 0.00 0.00 64 1009.4
20260905225405 73 313 0.0 5.0 0.00 0.00 0.00 64 1009.4
20260905224904 74 13 0.0 5.0 0.00 0.00 0.00 63 1009.1
20260905223904 74 310 2.0 6.0 0.00 0.00 0.00 62 1009.0
20260905223404 75 344 0.0 5.0 0.00 0.00 0.00 61 1009.0
20260905222904 75 329 1.0 8.0 0.00 0.00 0.00 60 1009.1
20260905221905 75 340 0.0 2.0 0.00 0.00 0.00 58 1008.9
20260905221404 75 342 0.0 1.0 0.00 0.00 0.00 60 1008.9
20260905220904 75 348 0.0 1.0 0.00 0.00 0.00 60 1008.9
20260905220405 75 355 0.0 0.0 0.00 0.00 0.00 60 1008.9
20260905215905 75 355 0.0 1.0 0.00 0.00 0.00 60 1008.9
20260905215406 75 357 0.0 1.0 0.00 0.00 0.00 59 1008.9
20260905214904 75 355 0.0 1.0 0.00 0.00 0.00 61 1008.8
20260905214406 76 355 0.0 5.0 0.00 0.00 0.00 59 1008.8
20260905213904 76 6 1.0 2.0 0.00 0.00 0.00 60 1008.9
20260905213404 76 10 0.0 1.0 0.00 0.00 0.00 60 1008.9
20260905212904 76 324 0.0 1.0 0.00 0.00 0.00 59 1008.8
20260905211903 78 10 0.0 2.0 0.00 0.00 0.00 54 1008.7
20260905210404 77 274 0.0 5.0 0.00 0.00 0.00 55 1008.6
20260905205904 78 339 1.0 8.0 0.00 0.00 0.00 56 1008.7
20260905204903 78 351 0.0 6.0 0.00 0.00 0.00 60 1008.7
20260905204404 77 347 0.0 2.0 0.00 0.00 0.00 57 1008.7
20260905203904 77 333 0.0 2.0 0.00 0.00 0.00 58 1008.6
20260905203404 76 19 0.0 6.0 0.00 0.00 0.00 58 1008.6